Location: Le Rouget
(44.8538°N, 2.2328°E)
Time: 22:37:47
(UTC+00:00)

Meteor 2-9 Rocket - Pass Details

Date: 15 May 2026
Orbit: 790 x 893 km, 81.3° (Epoch: 10 June)

Event Time Altitude Azimuth Distance (km) Brightness Sun altitude
Rises 22:32:46 0° 353° (N) 3,323 8.6 -23.9°
Reaches altitude 10° 22:35:12 10° 357° (N) 2,400 7.6 -24.0°
Maximum altitude 22:40:31 56° 76° (ENE) 971 4.4 -24.3°
Enters shadow 22:41:21 51° 111° (ESE) 1,032 4.4 -24.3°
